• In Italy
  • List of Countries
  • For 7 days
  • Water Temperature
  • Satellite Maps
  • Weather Map
  • Weather Widgets
  • user-avatar
    Login

    Hourly Weather Carlisle

    Today, 24 November, Friday

    Time Temperature Precipitation Wind Pressure Humidity
    00:00 +2°C° 0 mm 3 mps 750 mmHg 85%
    01:00 +1°C° 0.1 mm 3 mps 750 mmHg 86%
    02:00 +1°C° 0.1 mm 3 mps 750 mmHg 86%
    03:00 +2°C° 0.1 mm 2 mps 750 mmHg 87%
    04:00 +2°C° 0.1 mm 2 mps 751 mmHg 86%
    05:00 +2°C° 0.1 mm 2 mps 751 mmHg 86%
    06:00 +2°C° 0.1 mm 2 mps 752 mmHg 86%
    07:00 +2°C° 0 mm 2 mps 752 mmHg 85%
    08:00 +2°C° 0 mm 2 mps 752 mmHg 84%
    09:00 +2°C° 0 mm 2 mps 753 mmHg 83%
    10:00 +2°C° 0 mm 3 mps 753 mmHg 80%
    11:00 +3°C° 0 mm 3 mps 753 mmHg 76%
    12:00 +4°C° 0 mm 4 mps 753 mmHg 73%
    13:00 +4°C° 0.1 mm 4 mps 753 mmHg 75%
    14:00 +3°C° 0.1 mm 4 mps 753 mmHg 76%
    15:00 +3°C° 0.1 mm 3 mps 753 mmHg 78%
    16:00 +2°C° 0.1 mm 3 mps 753 mmHg 80%
    17:00 +2°C° 0.1 mm 3 mps 754 mmHg 82%
    18:00 +1°C° 0.1 mm 3 mps 754 mmHg 84%
    19:00 +1°C° 0 mm 3 mps 754 mmHg 82%
    20:00 +1°C° 0 mm 3 mps 754 mmHg 81%
    21:00 0°C° 0 mm 3 mps 754 mmHg 80%
    22:00 0°C° 0 mm 3 mps 754 mmHg 80%
    23:00 0°C° 0 mm 3 mps 755 mmHg 80%

    Tomorrow, 25 November, Saturday

    Time Temperature Precipitation Wind Pressure Humidity
    00:00 0°C° 0 mm 3 mps 755 mmHg 79%
    01:00 0°C° 0.1 mm 3 mps 755 mmHg 80%
    02:00 0°C° 0.1 mm 3 mps 755 mmHg 80%
    03:00 0°C° 0.1 mm 3 mps 755 mmHg 81%
    04:00 0°C° 0 mm 3 mps 755 mmHg 81%
    05:00 0°C° 0 mm 3 mps 755 mmHg 81%
    06:00 0°C° 0 mm 3 mps 756 mmHg 81%
    07:00 0°C° 0 mm 3 mps 756 mmHg 80%
    08:00 0°C° 0 mm 3 mps 757 mmHg 80%
    09:00 0°C° 0 mm 3 mps 757 mmHg 79%
    10:00 0°C° 0 mm 4 mps 758 mmHg 76%
    11:00 +1°C° 0 mm 4 mps 758 mmHg 73%
    12:00 +2°C° 0 mm 5 mps 758 mmHg 70%
    13:00 +2°C° 0 mm 5 mps 759 mmHg 72%
    14:00 +2°C° 0 mm 5 mps 759 mmHg 73%
    15:00 +1°C° 0 mm 4 mps 759 mmHg 75%
    16:00 +1°C° 0 mm 4 mps 759 mmHg 77%
    17:00 0°C° 0 mm 4 mps 760 mmHg 79%
    18:00 0°C° 0 mm 4 mps 760 mmHg 81%
    19:00 0°C° 0 mm 4 mps 760 mmHg 81%
    20:00 0°C° 0 mm 4 mps 761 mmHg 82%
    21:00 0°C° 0 mm 4 mps 761 mmHg 83%
    22:00 0°C° 0.1 mm 4 mps 761 mmHg 83%
    23:00 0°C° 0.1 mm 4 mps 761 mmHg 84%

    Day after tomorrow, 26 November, Sunday

    Time Temperature Precipitation Wind Pressure Humidity
    00:00 0°C° 0.1 mm 4 mps 762 mmHg 84%
    01:00 0°C° 0.1 mm 4 mps 762 mmHg 84%
    02:00 0°C° 0.1 mm 4 mps 762 mmHg 84%
    03:00 0°C° 0.1 mm 4 mps 762 mmHg 85%
    04:00 0°C° 0 mm 4 mps 763 mmHg 85%
    05:00 0°C° 0 mm 4 mps 763 mmHg 85%
    06:00 -1°C° 0 mm 4 mps 763 mmHg 84%
    07:00 -1°C° 0 mm 4 mps 763 mmHg 84%
    08:00 0°C° 0 mm 4 mps 764 mmHg 83%
    09:00 0°C° 0 mm 4 mps 764 mmHg 82%
    10:00 +1°C° 0 mm 4 mps 764 mmHg 78%
    11:00 +3°C° 0 mm 4 mps 765 mmHg 75%
    12:00 +3°C° 0 mm 5 mps 765 mmHg 72%
    13:00 +3°C° 0 mm 4 mps 765 mmHg 74%
    14:00 +3°C° 0 mm 4 mps 765 mmHg 77%
    15:00 +3°C° 0 mm 4 mps 764 mmHg 80%
    16:00 +3°C° 0 mm 4 mps 764 mmHg 83%
    17:00 +2°C° 0 mm 3 mps 764 mmHg 86%
    18:00 +2°C° 0 mm 3 mps 764 mmHg 89%
    19:00 +2°C° 0.7 mm 3 mps 763 mmHg 90%
    20:00 +3°C° 0.7 mm 4 mps 762 mmHg 92%
    21:00 +4°C° 0.7 mm 4 mps 762 mmHg 93%
    22:00 +3°C° 1.8 mm 5 mps 761 mmHg 93%
    23:00 +4°C° 1.8 mm 6 mps 760 mmHg 93%

    27 November, Monday

    Time Temperature Precipitation Wind Pressure Humidity
    00:00 +5°C° 1.8 mm 7 mps 759 mmHg 93%
    01:00 +5°C° 0.7 mm 7 mps 758 mmHg 92%
    02:00 +5°C° 0.7 mm 7 mps 758 mmHg 90%
    03:00 +6°C° 0.7 mm 7 mps 757 mmHg 89%
    04:00 +5°C° 0.1 mm 7 mps 757 mmHg 88%
    05:00 +4°C° 0.1 mm 7 mps 757 mmHg 87%
    06:00 +4°C° 0.1 mm 7 mps 757 mmHg 87%
    07:00 +4°C° 0 mm 6 mps 757 mmHg 86%
    08:00 +3°C° 0 mm 6 mps 758 mmHg 86%
    09:00 +3°C° 0 mm 6 mps 758 mmHg 85%
    10:00 +3°C° 0 mm 6 mps 758 mmHg 82%
    11:00 +4°C° 0 mm 6 mps 759 mmHg 79%
    12:00 +4°C° 0 mm 6 mps 759 mmHg 76%
    13:00 +4°C° 0 mm 6 mps 759 mmHg 79%
    14:00 +5°C° 0 mm 5 mps 758 mmHg 81%
    15:00 +3°C° 0 mm 5 mps 758 mmHg 84%
    16:00 +3°C° 0.1 mm 5 mps 758 mmHg 86%
    17:00 +3°C° 0.1 mm 5 mps 758 mmHg 88%
    18:00 +3°C° 0.1 mm 5 mps 757 mmHg 90%
    19:00 +5°C° 0.2 mm 5 mps 757 mmHg 90%
    20:00 +5°C° 0.2 mm 5 mps 756 mmHg 89%
    21:00 +4°C° 0.2 mm 6 mps 755 mmHg 89%
    22:00 +4°C° 0.5 mm 6 mps 754 mmHg 89%
    23:00 +4°C° 0.5 mm 7 mps 753 mmHg 89%

    28 November, Tuesday

    Time Temperature Precipitation Wind Pressure Humidity
    00:00 +4°C° 0.5 mm 7 mps 751 mmHg 89%
    01:00 +4°C° 1.3 mm 7 mps 750 mmHg 89%
    02:00 +4°C° 1.3 mm 7 mps 749 mmHg 89%
    03:00 +4°C° 1.3 mm 7 mps 748 mmHg 89%
    04:00 +3°C° 0.5 mm 6 mps 747 mmHg 87%
    05:00 +3°C° 0.5 mm 5 mps 746 mmHg 85%
    06:00 +3°C° 0.5 mm 4 mps 745 mmHg 83%
    07:00 +3°C° 0 mm 3 mps 745 mmHg 83%
    08:00 +2°C° 0 mm 3 mps 745 mmHg 83%
    09:00 +2°C° 0 mm 3 mps 745 mmHg 84%
    10:00 +3°C° 0 mm 4 mps 746 mmHg 84%
    11:00 +3°C° 0 mm 5 mps 746 mmHg 84%
    12:00 +5°C° 0 mm 5 mps 747 mmHg 84%
    13:00 +5°C° 0.1 mm 5 mps 747 mmHg 85%
    14:00 +5°C° 0.1 mm 5 mps 747 mmHg 86%
    15:00 +5°C° 0.1 mm 5 mps 748 mmHg 88%
    16:00 +3°C° 0.1 mm 5 mps 748 mmHg 87%
    17:00 +3°C° 0.1 mm 5 mps 749 mmHg 86%
    18:00 +3°C° 0.1 mm 5 mps 749 mmHg 85%
    19:00 +2°C° 0.1 mm 5 mps 750 mmHg 86%
    20:00 +2°C° 0.1 mm 5 mps 750 mmHg 87%
    21:00 +2°C° 0.1 mm 5 mps 751 mmHg 88%
    22:00 +2°C° 0.1 mm 5 mps 751 mmHg 86%
    23:00 +2°C° 0.1 mm 5 mps 751 mmHg 85%

    29 November, Wednesday

    Time Temperature Precipitation Wind Pressure Humidity
    00:00 +1°C° 0.1 mm 5 mps 751 mmHg 83%
    01:00 +1°C° 0 mm 5 mps 752 mmHg 83%
    02:00 0°C° 0 mm 5 mps 752 mmHg 83%
    03:00 0°C° 0 mm 5 mps 752 mmHg 83%
    04:00 0°C° 0 mm 5 mps 753 mmHg 83%
    05:00 0°C° 0 mm 5 mps 753 mmHg 84%
    06:00 +1°C° 0 mm 6 mps 753 mmHg 85%
    07:00 +1°C° 0 mm 5 mps 754 mmHg 85%
    08:00 +1°C° 0 mm 5 mps 754 mmHg 86%
    09:00 +1°C° 0 mm 5 mps 754 mmHg 87%
    10:00 +2°C° 0 mm 5 mps 755 mmHg 85%
    11:00 +2°C° 0 mm 5 mps 755 mmHg 82%
    12:00 +3°C° 0 mm 5 mps 756 mmHg 80%
    13:00 +3°C° 0 mm 5 mps 756 mmHg 81%
    14:00 +2°C° 0 mm 5 mps 756 mmHg 82%
    15:00 +3°C° 0 mm 4 mps 757 mmHg 83%
    16:00 +1°C° 0 mm 4 mps 757 mmHg 84%
    17:00 0°C° 0 mm 4 mps 758 mmHg 85%
    18:00 0°C° 0 mm 4 mps 758 mmHg 86%
    19:00 0°C° 0 mm 4 mps 759 mmHg 87%
    20:00 -1°C° 0 mm 4 mps 759 mmHg 88%
    21:00 -1°C° 0 mm 4 mps 759 mmHg 88%
    22:00 -1°C° 0 mm 4 mps 759 mmHg 88%
    23:00 -1°C° 0 mm 4 mps 760 mmHg 88%
    Show more